Vertical_Velocity
-3 1 5 -1 -3 -6 -1 -6 -7 -3 -0 2 1 -8 0 0 5 -1 -0 0 -3 -2 -3 -3 0 1 0 1 -1 -3 -2 -2
-1 7 11 6 5 -2 3 -6 -0 -0 -1 0 -3 -1 -1 -2 4 -2 -6 -5 -4 -3 -0 1 0 0 -0 -0 0 -1 -3 -2
-2 1 5 6 -7 4 1 1 -2 -3 -0 -5 -3 -1 0 2 -5 -3 -3 -2 0 1 -2 -1 -2 -2 -2 -2 -2 -4 -3 -2
-2 -2 7 6 0 -1 -3 2 4 -3 -3 -0 5 5 2 1 0 1 2 0 -3 -6 -9 -7 -2 -3 -2 -2 -1 -0 0 0
6 1 2 5 1 18 5 3 1 -0 4 0 -2 -3 -1 4 2 0 -2 -3 -4 -2 2 1 2 -0 1 -2 -0 0 2 2
-3 -1 -6 -1 -0 -4 -4 6 5 1 10 3 1 5 1 -1 -3 -4 -4 -3 -2 -3 -1 -2 -2 -2 -0 -3 -3 1 1 1
3 0 1 1 4 1 -2 1 4 1 1 1 -1 -3 1 -0 1 3 3 1 1 -1 1 -1 -1 -3 -3 -2 3 2 4 3
3 -4 1 4 -8 4 8 2 -1 1 2 4 3 2 -1 2 -0 -1 -1 -0 -0 -0 -1 -2 -1 -1 -4 -1 1 -2 -0 -2
1 -1 -2 -2 -1 2 2 -1 -1 -0 2 2 3 3 1 -1 -1 -0 -0 0 2 -2 -4 -1 -3 -3 -3 0 -0 -1 1 0
-3 0 -4 -5 -4 -2 -0 -1 1 1 1 2 3 3 0 -0 0 -1 -1 -0 0 -2 1 -1 -6 1 2 -1 -5 -7 -3 -2
-0 -3 -4 -3 -5 -4 -0 1 -2 -2 -0 0 2 1 0 1 -1 -3 0 -2 -5 -2 1 -5 -3 0 -3 0 1 1 -2 0
-3 -3 -0 -2 -1 -3 -3 1 -4 -2 -1 -2 0 1 1 0 -0 0 -2 2 -3 -0 -5 -7 -5 -1 1 1 4 -2 -1 4
-2 -2 -3 -2 -2 -2 -3 -0 -1 -2 -1 -1 -3 -4 -2 -1 -1 -2 -1 -4 -3 -3 -7 -2 -3 -1 -0 2 4 3 5 -2
2 6 -2 -3 -1 -1 -0 -1 -2 -1 -1 -2 -4 -3 -1 -1 1 1 -3 -1 -4 -4 2 1 2 -3 -7 -5 -12 -3 2 4
1 8 2 1 0 -2 -0 1 1 -0 0 -1 -3 -3 -4 5 4 3 1 2 1 5 -1 -8 -6 -1 1 1 0 3 1 0
12 4 1 3 2 1 2 4 0 0 -0 -3 -3 -1 13 13 4 -0 -4 6 3 -1 -10 -2 3 3 -2 3 -3 -2 -3 -3
-3 5 9 4 2 1 -1 3 1 0 3 -0 2 5 5 -6 14 1 5 -4 -4 -3 1 -3 2 0 -2 -4 2 0 -2 -0
2 3 2 3 -2 -2 -4 -0 4 7 4 3 3 7 9 10 -4 -18 -10 -1 -3 -2 4 6 5 -0 1 1 4 1 2 2
1 0 9 5 5 2 8 7 7 7 10 12 11 3 2 0 -12 -16 -0 -8 4 2 -2 1 1 1 3 1 -2 -3 -1 -2
Height
1532 1535 1535 1536 1538 1543 1546 1549 1552 1555 1558 1562 1565 1565 1568 1568 1568 1567 1568 1568 1570 1571 1571 1570 1569 1568 1566 1565 1563 1561 1559 1556
1531 1534 1536 1537 1538 1538 1540 1543 1548 1552 1555 1558 1562 1564 1566 1565 1565 1565 1566 1567 1569 1570 1570 1569 1567 1565 1563 1561 1558 1556 1555 1552
1527 1530 1532 1533 1534 1537 1539 1542 1545 1550 1552 1556 1559 1561 1562 1563 1564 1564 1566 1567 1567 1566 1565 1564 1563 1561 1559 1557 1555 1552 1551 1549
1524 1525 1530 1531 1532 1534 1537 1540 1543 1547 1550 1554 1557 1559 1561 1561 1561 1562 1563 1563 1562 1562 1561 1560 1558 1556 1554 1553 1551 1549 1547 1546
1520 1522 1526 1528 1531 1532 1536 1539 1541 1544 1547 1550 1552 1554 1555 1557 1558 1559 1558 1560 1560 1558 1556 1555 1554 1553 1551 1549 1548 1547 1544 1542
1513 1519 1524 1529 1531 1533 1534 1538 1540 1542 1545 1547 1549 1551 1551 1552 1553 1556 1558 1558 1557 1555 1553 1552 1551 1549 1547 1545 1545 1543 1541 1540
1512 1517 1522 1525 1530 1533 1535 1537 1538 1540 1542 1542 1544 1545 1546 1549 1553 1555 1555 1553 1551 1550 1549 1548 1547 1545 1543 1543 1542 1541 1540 1538
1508 1513 1518 1521 1527 1531 1533 1534 1535 1537 1539 1540 1541 1543 1547 1549 1550 1551 1550 1548 1547 1547 1546 1545 1543 1542 1541 1541 1539 1537 1535 1534
1507 1511 1515 1521 1526 1530 1531 1532 1533 1535 1537 1539 1541 1543 1545 1546 1547 1546 1545 1545 1545 1543 1543 1541 1540 1539 1538 1537 1535 1533 1532 1530
1507 1512 1515 1519 1524 1528 1530 1531 1532 1534 1535 1538 1541 1541 1542 1543 1543 1542 1543 1543 1542 1541 1540 1538 1537 1536 1535 1533 1531 1529 1528 1526
1506 1510 1513 1516 1521 1526 1529 1530 1532 1533 1534 1538 1539 1540 1540 1540 1539 1540 1541 1539 1540 1539 1537 1536 1535 1533 1530 1529 1527 1525 1524 1523
1502 1506 1509 1512 1517 1521 1525 1527 1529 1530 1532 1535 1537 1538 1538 1537 1537 1537 1537 1537 1537 1537 1535 1534 1533 1532 1530 1527 1525 1521 1519 1517
1496 1500 1504 1508 1511 1515 1519 1521 1524 1526 1529 1532 1534 1535 1535 1535 1536 1536 1535 1536 1535 1533 1531 1530 1528 1527 1527 1525 1523 1520 1517 1513
1492 1495 1497 1501 1505 1508 1512 1516 1518 1521 1524 1527 1530 1532 1533 1534 1534 1534 1534 1533 1531 1530 1529 1526 1523 1521 1521 1520 1517 1516 1515 1513
1487 1489 1491 1493 1497 1500 1506 1510 1513 1516 1519 1522 1525 1527 1530 1532 1532 1532 1531 1530 1528 1527 1525 1524 1521 1518 1516 1514 1514 1512 1511 1509
1484 1484 1487 1491 1494 1498 1502 1506 1509 1511 1514 1517 1520 1523 1526 1528 1528 1528 1527 1525 1524 1523 1520 1518 1516 1515 1513 1511 1507 1506 1506 1504
1485 1485 1485 1488 1490 1494 1498 1501 1503 1506 1509 1514 1517 1519 1520 1520 1522 1522 1522 1521 1519 1517 1516 1514 1512 1509 1508 1506 1505 1502 1502 1500
1484 1486 1487 1488 1489 1491 1493 1496 1499 1502 1506 1510 1511 1511 1515 1515 1515 1517 1519 1517 1514 1512 1510 1508 1505 1503 1502 1501 1500 1499 1497 1495
1484 1486 1489 1488 1488 1489 1491 1493 1496 1499 1503 1504 1505 1506 1508 1510 1511 1514 1513 1512 1509 1507 1505 1503 1499 1499 1498 1496 1495 1494 1492 1491